{"data":{"norad_id":59130,"epoch":"2026-09-22T09:09:31.322592Z","epoch_age_seconds":95380,"freshness":"FRESH","line1":"1 59130U 24043AJ  26265.38161253  .00011472  00000+0  24306-3 0  9993","line2":"2 59130  97.5716  53.7418 0006443 220.3456 139.7315 15.45245105142516","mean_motion":15.45245105,"eccentricity":0.0006443,"inclination_deg":97.5716,"raan_deg":53.7418,"arg_perigee_deg":220.3456,"mean_anomaly_deg":139.7315,"bstar":0.00024306,"rev_number":14251,"period_min":93.189099602422,"perigee_km":426.27106820731,"apogee_km":435.04488141185,"semimajor_km":6808.7949748096,"source":"CELESTRAK","updated_at":"2026-09-23T09:00:19.179909Z"}}